ICEYE-X33

Last updated on Mon Sep 16 2024 00:02:04 GMT+0000 (Coordinated Universal Time)

1 60548U 24149CJ 24259.19067121 .00010611 00000+0 10220-2 0 9997 2 60548 97.7456 334.2143 0006084 69.3050 290.8821 14.93112153 4378
UTC large
Height (km)
Speed (km/s)
/
Latitude / Longitude
Inclination (degrees)
Orbital Period (minutes)
Azimuth
Elevation
Range (km)
Doppler Factor

Next 0 passes for location: London (51.5072 / 0.1276)

Sorry there are no passes over London.